{"data":{"norad_id":49292,"intl_designator":"2021-090P","name":"ONEWEB-0366","alt_names":[],"object_type":"PAYLOAD","status":"ACTIVE","operator":null,"country":"UK","launch_date":"2021-10-14","launch_site_code":"VOSTO","launch_vehicle":null,"mission":null,"orbit_class":"UNKNOWN","rcs_meters":null,"size_class":null,"mass_kg":null,"dimensions":null,"purposes":["comms"],"wikipedia_slug":null,"has_3d_model":false,"image_url":null,"decayed_at":null,"tle_current":{"epoch":"2026-05-25T03:27:07.147008Z","epoch_age_seconds":69565,"freshness":"FRESH","line1":"1 49292U 21090P   26145.14383272 -.00000126  00000+0 -37547-3 0  9995","line2":"2 49292  87.8937 294.3026 0001860  98.9943 261.1397 13.14501306224532","mean_motion":13.14501306,"eccentricity":0.000186,"inclination_deg":87.8937,"raan_deg":294.3026,"arg_perigee_deg":98.9943,"mean_anomaly_deg":261.1397,"bstar":-0.00037547,"rev_number":22453,"period_min":109.5472475704,"perigee_km":1204.3854894414,"apogee_km":1207.206712555,"semimajor_km":7583.9331009982,"source":"CELESTRAK","updated_at":"2026-05-25T13:38:22.522013Z"}}}